When you browse on this site, cookies collect data to enhance your experience and personalize the content and advertising you see.
Visit our Privacy Policy to learn more. By continuing to use the site, you agree to this use of cookies and data.
  • Em Portugal
  • Lista de países
  • Para 7 dias
  • Temperatura da água
  • Mapa do tempo
  • Widgets de tempo
  • user-avatar
    Iniciar Sessão

    Previsão horária em Diveevka

    Hoje, 25 Agosto, Domingo

    Tempo Temperatura Precipitação Vento Pressão Humidade
    00:00 +15°C° 0 mm 2 m/s 751 mmHg 84%
    01:00 +15°C° 0 mm 2 m/s 751 mmHg 84%
    02:00 +15°C° 0 mm 2 m/s 751 mmHg 85%
    03:00 +15°C° 0 mm 2 m/s 751 mmHg 86%
    04:00 +14°C° 0 mm 3 m/s 752 mmHg 89%
    05:00 +13°C° 0 mm 3 m/s 752 mmHg 92%
    06:00 +13°C° 0 mm 3 m/s 752 mmHg 95%
    07:00 +14°C° 0 mm 3 m/s 752 mmHg 86%
    08:00 +15°C° 0 mm 4 m/s 752 mmHg 77%
    09:00 +17°C° 0 mm 5 m/s 752 mmHg 68%
    10:00 +17°C° 0 mm 5 m/s 752 mmHg 65%
    11:00 +19°C° 0 mm 5 m/s 753 mmHg 63%
    12:00 +19°C° 0 mm 5 m/s 753 mmHg 61%
    13:00 +19°C° 0 mm 5 m/s 753 mmHg 62%
    14:00 +17°C° 0 mm 5 m/s 753 mmHg 64%
    15:00 +17°C° 0 mm 5 m/s 754 mmHg 65%
    16:00 +17°C° 0 mm 4 m/s 754 mmHg 68%
    17:00 +17°C° 0 mm 4 m/s 754 mmHg 70%
    18:00 +17°C° 0 mm 3 m/s 754 mmHg 73%
    19:00 +14°C° 0 mm 3 m/s 754 mmHg 79%
    20:00 +13°C° 0 mm 3 m/s 755 mmHg 84%
    21:00 +13°C° 0 mm 2 m/s 755 mmHg 90%
    22:00 +12°C° 0 mm 2 m/s 756 mmHg 91%
    23:00 +12°C° 0 mm 2 m/s 756 mmHg 92%

    Amanhã, 26 Agosto, Segunda-feira

    Tempo Temperatura Precipitação Vento Pressão Humidade
    00:00 +11°C° 0 mm 1 m/s 756 mmHg 94%
    01:00 +11°C° 0 mm 1 m/s 756 mmHg 94%
    02:00 +11°C° 0 mm 1 m/s 757 mmHg 94%
    03:00 +10°C° 0 mm 1 m/s 757 mmHg 95%
    04:00 +10°C° 0 mm 1 m/s 757 mmHg 95%
    05:00 +11°C° 0 mm 1 m/s 757 mmHg 95%
    06:00 +11°C° 0 mm 1 m/s 757 mmHg 95%
    07:00 +13°C° 0 mm 1 m/s 757 mmHg 87%
    08:00 +14°C° 0 mm 1 m/s 757 mmHg 79%
    09:00 +16°C° 0 mm 1 m/s 758 mmHg 71%
    10:00 +18°C° 0 mm 1 m/s 757 mmHg 67%
    11:00 +18°C° 0 mm 2 m/s 757 mmHg 63%
    12:00 +19°C° 0 mm 2 m/s 757 mmHg 58%
    13:00 +20°C° 0 mm 2 m/s 756 mmHg 56%
    14:00 +20°C° 0 mm 2 m/s 756 mmHg 54%
    15:00 +21°C° 0 mm 3 m/s 756 mmHg 52%
    16:00 +20°C° 0 mm 2 m/s 755 mmHg 58%
    17:00 +19°C° 0 mm 2 m/s 755 mmHg 63%
    18:00 +19°C° 0 mm 2 m/s 754 mmHg 69%
    19:00 +17°C° 0 mm 2 m/s 754 mmHg 73%
    20:00 +16°C° 0 mm 2 m/s 754 mmHg 78%
    21:00 +14°C° 0 mm 2 m/s 753 mmHg 83%
    22:00 +14°C° 0 mm 2 m/s 753 mmHg 84%
    23:00 +14°C° 0 mm 2 m/s 753 mmHg 86%

    Depois de amanhã, 27 Agosto, Terça-feira

    Tempo Temperatura Precipitação Vento Pressão Humidade
    00:00 +12°C° 0 mm 3 m/s 752 mmHg 87%
    01:00 +13°C° 0 mm 3 m/s 752 mmHg 84%
    02:00 +13°C° 0 mm 3 m/s 751 mmHg 82%
    03:00 +13°C° 0 mm 4 m/s 751 mmHg 79%
    04:00 +13°C° 0 mm 4 m/s 750 mmHg 80%
    05:00 +13°C° 0 mm 4 m/s 749 mmHg 81%
    06:00 +13°C° 0 mm 4 m/s 749 mmHg 81%
    07:00 +14°C° 0.1 mm 4 m/s 748 mmHg 81%
    08:00 +15°C° 0.1 mm 4 m/s 748 mmHg 82%
    09:00 +17°C° 0.1 mm 4 m/s 747 mmHg 82%
    10:00 +17°C° 0.2 mm 4 m/s 747 mmHg 81%
    11:00 +18°C° 0.2 mm 4 m/s 747 mmHg 80%
    12:00 +19°C° 0.2 mm 5 m/s 746 mmHg 79%
    13:00 +19°C° 0.6 mm 5 m/s 746 mmHg 77%
    14:00 +19°C° 0.6 mm 5 m/s 746 mmHg 75%
    15:00 +20°C° 0.6 mm 5 m/s 745 mmHg 73%
    16:00 +19°C° 0.2 mm 4 m/s 745 mmHg 74%
    17:00 +18°C° 0.2 mm 4 m/s 745 mmHg 75%
    18:00 +17°C° 0.2 mm 4 m/s 745 mmHg 76%
    19:00 +15°C° 0.1 mm 4 m/s 745 mmHg 79%
    20:00 +14°C° 0.1 mm 4 m/s 745 mmHg 83%
    21:00 +12°C° 0.1 mm 5 m/s 746 mmHg 86%
    22:00 +10°C° 0 mm 5 m/s 746 mmHg 87%
    23:00 +9°C° 0 mm 5 m/s 746 mmHg 89%

    28 Agosto, Quarta-feira

    Tempo Temperatura Precipitação Vento Pressão Humidade
    00:00 +8°C° 0 mm 5 m/s 747 mmHg 90%
    01:00 +8°C° 0 mm 5 m/s 747 mmHg 86%
    02:00 +7°C° 0 mm 5 m/s 747 mmHg 81%
    03:00 +6°C° 0 mm 5 m/s 747 mmHg 77%
    04:00 +6°C° 0 mm 5 m/s 747 mmHg 76%
    05:00 +4°C° 0 mm 6 m/s 748 mmHg 74%
    06:00 +4°C° 0 mm 6 m/s 748 mmHg 73%
    07:00 +5°C° 0 mm 6 m/s 748 mmHg 71%
    08:00 +5°C° 0 mm 6 m/s 748 mmHg 68%
    09:00 +7°C° 0 mm 6 m/s 748 mmHg 66%
    10:00 +7°C° 0 mm 6 m/s 748 mmHg 65%
    11:00 +7°C° 0 mm 6 m/s 749 mmHg 65%
    12:00 +7°C° 0 mm 6 m/s 749 mmHg 64%
    13:00 +7°C° 0 mm 6 m/s 749 mmHg 65%
    14:00 +7°C° 0 mm 6 m/s 750 mmHg 66%
    15:00 +8°C° 0 mm 6 m/s 750 mmHg 67%
    16:00 +8°C° 0 mm 6 m/s 750 mmHg 68%
    17:00 +8°C° 0 mm 5 m/s 750 mmHg 69%
    18:00 +8°C° 0 mm 5 m/s 750 mmHg 71%
    19:00 +8°C° 0 mm 5 m/s 750 mmHg 72%
    20:00 +8°C° 0 mm 5 m/s 751 mmHg 73%
    21:00 +7°C° 0 mm 4 m/s 751 mmHg 75%
    22:00 +7°C° 0 mm 4 m/s 751 mmHg 75%
    23:00 +7°C° 0 mm 5 m/s 751 mmHg 76%

    29 Agosto, Quinta-feira

    Tempo Temperatura Precipitação Vento Pressão Humidade
    00:00 +6°C° 0 mm 5 m/s 751 mmHg 76%
    01:00 +6°C° 0 mm 5 m/s 751 mmHg 78%
    02:00 +5°C° 0 mm 5 m/s 751 mmHg 79%
    03:00 +5°C° 0 mm 5 m/s 751 mmHg 80%
    04:00 +5°C° 0 mm 5 m/s 751 mmHg 81%
    05:00 +5°C° 0 mm 5 m/s 751 mmHg 81%
    06:00 +3°C° 0 mm 6 m/s 752 mmHg 81%
    07:00 +4°C° 0 mm 6 m/s 752 mmHg 76%
    08:00 +7°C° 0 mm 6 m/s 752 mmHg 72%
    09:00 +8°C° 0 mm 6 m/s 752 mmHg 67%
    10:00 +9°C° 0 mm 6 m/s 752 mmHg 64%
    11:00 +10°C° 0 mm 6 m/s 752 mmHg 60%
    12:00 +11°C° 0 mm 6 m/s 752 mmHg 56%
    13:00 +13°C° 0 mm 6 m/s 752 mmHg 56%
    14:00 +13°C° 0 mm 6 m/s 752 mmHg 55%
    15:00 +13°C° 0 mm 6 m/s 752 mmHg 55%
    16:00 +13°C° 0 mm 5 m/s 752 mmHg 58%
    17:00 +12°C° 0 mm 4 m/s 753 mmHg 62%
    18:00 +11°C° 0 mm 4 m/s 753 mmHg 65%
    19:00 +10°C° 0 mm 4 m/s 753 mmHg 68%
    20:00 +8°C° 0 mm 4 m/s 753 mmHg 70%
    21:00 +8°C° 0 mm 3 m/s 753 mmHg 73%
    22:00 +7°C° 0 mm 3 m/s 753 mmHg 76%
    23:00 +7°C° 0 mm 3 m/s 753 mmHg 79%

    30 Agosto, Sexta-feira

    Tempo Temperatura Precipitação Vento Pressão Humidade
    00:00 +5°C° 0 mm 3 m/s 753 mmHg 82%
    01:00 +5°C° 0 mm 3 m/s 753 mmHg 85%
    02:00 +5°C° 0 mm 2 m/s 753 mmHg 88%
    03:00 +5°C° 0 mm 2 m/s 753 mmHg 91%
    04:00 +5°C° 0 mm 2 m/s 753 mmHg 91%
    05:00 +5°C° 0 mm 2 m/s 753 mmHg 91%
    06:00 +4°C° 0 mm 2 m/s 753 mmHg 91%
    07:00 +7°C° 0 mm 3 m/s 753 mmHg 83%
    08:00 +9°C° 0 mm 3 m/s 753 mmHg 75%
    09:00 +11°C° 0 mm 3 m/s 753 mmHg 66%
    10:00 +12°C° 0 mm 3 m/s 753 mmHg 63%
    11:00 +12°C° 0 mm 4 m/s 752 mmHg 59%
    12:00 +13°C° 0 mm 4 m/s 752 mmHg 55%
    13:00 +12°C° 0.1 mm 3 m/s 752 mmHg 63%
    14:00 +10°C° 0.1 mm 3 m/s 751 mmHg 70%
    15:00 +9°C° 0.1 mm 2 m/s 751 mmHg 78%
    16:00 +9°C° 0.2 mm 2 m/s 751 mmHg 82%
    17:00 +8°C° 0.2 mm 2 m/s 751 mmHg 85%
    18:00 +8°C° 0.2 mm 2 m/s 751 mmHg 89%
    19:00 +7°C° 0 mm 2 m/s 751 mmHg 91%
    20:00 +6°C° 0 mm 2 m/s 752 mmHg 93%
    21:00 +5°C° 0 mm 2 m/s 752 mmHg 96%
    22:00 +5°C° 0 mm 2 m/s 752 mmHg 96%
    23:00 +5°C° 0 mm 2 m/s 752 mmHg 96%
    Mostrar mais